TimeEEST,TemperatureF,Dew PointF,Humidity,Sea Level PressureIn,VisibilityMPH,Wind Direction,Wind SpeedMPH,Gust SpeedMPH,PrecipitationIn,Events,Conditions,WindDirDegrees,DateUTC
12:20 AM,55.4,28.4,36,30.01,-9999.0,NW,12.7,-,N/A,,Unknown,320,2012-10-08 21:20:00
12:50 AM,53.6,26.6,35,30.01,-9999.0,NNW,10.4,-,N/A,,Unknown,330,2012-10-08 21:50:00
1:20 AM,55.4,26.6,33,30.01,-9999.0,NNW,12.7,-,N/A,,Unknown,330,2012-10-08 22:20:00
1:50 AM,53.6,26.6,35,30.01,-9999.0,NNW,13.8,-,N/A,,Unknown,330,2012-10-08 22:50:00
2:20 AM,53.6,26.6,35,30.01,-9999.0,NNW,12.7,-,N/A,,Unknown,340,2012-10-08 23:20:00
2:50 AM,53.6,24.8,33,30.01,-9999.0,NW,11.5,-,N/A,,Unknown,320,2012-10-08 23:50:00
3:20 AM,51.8,26.6,38,30.01,-9999.0,NNW,11.5,-,N/A,,Unknown,330,2012-10-09 00:20:00
3:50 AM,51.8,26.6,38,30.01,-9999.0,North,10.4,-,N/A,,Unknown,350,2012-10-09 00:50:00
4:20 AM,51.8,26.6,38,30.01,-9999.0,NW,10.4,-,N/A,,Unknown,320,2012-10-09 01:20:00
4:50 AM,51.8,26.6,38,30.01,-9999.0,NNW,11.5,-,N/A,,Unknown,340,2012-10-09 01:50:00
5:20 AM,50.0,26.6,40,30.01,-9999.0,NNW,12.7,-,N/A,,Unknown,330,2012-10-09 02:20:00
5:50 AM,50.0,26.6,40,30.01,-9999.0,NNW,10.4,-,N/A,,Unknown,330,2012-10-09 02:50:00
6:20 AM,51.8,26.6,38,30.01,-9999.0,WNW,10.4,-,N/A,,Unknown,290,2012-10-09 03:20:00
6:50 AM,50.0,28.4,43,30.01,-9999.0,NNW,11.5,-,N/A,,Unknown,330,2012-10-09 03:50:00
7:20 AM,50.0,26.6,40,30.01,-9999.0,NW,10.4,-,N/A,,Unknown,320,2012-10-09 04:20:00
7:50 AM,50.0,28.4,43,30.01,6.2,NNW,9.2,-,N/A,,Scattered Clouds,330,2012-10-09 04:50:00
8:50 AM,51.8,28.4,41,30.01,6.2,NNW,8.1,-,N/A,,Scattered Clouds,340,2012-10-09 05:50:00
9:50 AM,53.6,30.2,41,30.01,6.2,NW,6.9,-,N/A,,Mostly Cloudy,310,2012-10-09 06:50:00
10:50 AM,59.0,30.2,34,30.01,6.2,Calm,Calm,-,N/A,,Mostly Cloudy,0,2012-10-09 07:50:00
11:50 AM,60.8,30.2,31,30.01,6.2,Calm,Calm,-,N/A,,Mostly Cloudy,0,2012-10-09 08:50:00
12:50 PM,64.4,33.8,32,29.98,6.2,Calm,Calm,-,N/A,,Mostly Cloudy,0,2012-10-09 09:50:00
1:50 PM,66.2,37.4,35,29.95,6.2,East,6.9,-,N/A,,Mostly Cloudy,100,2012-10-09 10:50:00
2:50 PM,66.2,39.2,37,29.95,6.2,SSE,8.1,-,N/A,,Mostly Cloudy,150,2012-10-09 11:50:00
3:50 PM,66.2,42.8,43,29.92,6.2,SSE,8.1,-,N/A,,Mostly Cloudy,150,2012-10-09 12:50:00
4:50 PM,66.2,41.0,40,29.92,6.2,SE,8.1,-,N/A,,Mostly Cloudy,140,2012-10-09 13:50:00
5:50 PM,62.6,44.6,52,29.92,6.2,ESE,8.1,-,N/A,,Mostly Cloudy,120,2012-10-09 14:50:00
6:50 PM,59.0,42.8,55,29.92,6.2,ESE,4.6,-,N/A,,Mostly Cloudy,120,2012-10-09 15:50:00
7:50 PM,59.0,44.6,59,29.92,6.2,Calm,Calm,-,N/A,,Mostly Cloudy,0,2012-10-09 16:50:00
8:50 PM,57.2,44.6,63,29.95,6.2,Calm,Calm,-,N/A,,Scattered Clouds,0,2012-10-09 17:50:00
9:20 PM,55.4,44.6,67,29.95,-9999.0,Calm,Calm,-,N/A,,Unknown,0,2012-10-09 18:20:00
9:50 PM,53.6,44.6,72,29.95,-9999.0,Variable,2.3,-,N/A,,Unknown,0,2012-10-09 18:50:00
10:20 PM,53.6,42.8,67,29.92,-9999.0,Variable,2.3,-,N/A,,Unknown,0,2012-10-09 19:20:00
10:50 PM,51.8,42.8,71,29.92,-9999.0,Variable,2.3,-,N/A,,Unknown,0,2012-10-09 19:50:00
11:20 PM,53.6,44.6,72,29.92,-9999.0,Calm,Calm,-,N/A,,Unknown,0,2012-10-09 20:20:00
11:50 PM,53.6,44.6,72,29.92,-9999.0,Variable,3.5,-,N/A,,Unknown,0,2012-10-09 20:50:00